Weather History for Henderson, KY

Change the Weather History Date:

Sunday, January 22, 2012

  Actual Average Record
Temperature  
Mean Temperature 46 °F -  
Max Temperature 62 °F 44 °F 69 °F (1957)
Min Temperature 30 °F 27 °F -3 °F (1936)
Degree Days  
Heating Degree Days 19    
Moisture  
Dew Point 38 °F    
Average Humidity 80    
Maximum Humidity 88    
Minimum Humidity 75    
Precipitation  
Precipitation 0.42 in - - ()
Sea Level Pressure  
Sea Level Pressure 29.89 in    
Wind  
Wind Speed 11 mph (SE)    
Max Wind Speed 33 mph    
Max Gust Speed 51 mph    
Visibility 7 miles    
Events Thunderstorm    
Averages and records for this station are not official NWS values.
T = Trace of Precipitation, MM = Missing Value Source: NWS Daily Summary

Daily Weather History Graph

Daily Weather History Graph

Search for Another Location

Airport:

Trip Planner

Search our weather history database for the weather conditions in past years. The results will help you decide how hot, cold, wet, or windy it might be!

Date:

Astronomy

Jan. 22, 2012 Rise Set
Actual Time 7:02 AM CST 5:02 PM CST
Civil Twilight 6:33 AM CST 5:30 PM CST
Nautical Twilight 6:01 AM CST 6:02 PM CST
Astronomical Twilight 5:30 AM CST 6:34 PM CST
Moon 6:18 AM CST (1/22) 4:44 PM CST (1/22)
Length of Visible Light 10h 57m
Length of Day
10h 00m
Waning Crescent, 0% of the Moon is Illuminated
Jan 22
Waning Crescent
Jan 23
New
Jan 30
First Quarter
Feb 7
Full
Feb 14
Last Quarter

Hourly Weather History & Observations

Time (CST) Temp. Windchill Dew Point Humidity Pressure Visibility Wind Dir Wind Speed Gust Speed Precip Events Conditions
12:15 AM 30.2 °F 20.2 °F 24.8 °F 80% 30.11 in 10.0 mi ESE 12.7 mph - N/A   Overcast
12:35 AM 30.2 °F 21.9 °F 24.8 °F 80% 30.11 in 10.0 mi ESE 9.2 mph - N/A   Overcast
12:55 AM 30.2 °F 20.8 °F 24.8 °F 80% 30.10 in 10.0 mi ESE 11.5 mph - N/A   Overcast
1:15 AM 30.2 °F 22.6 °F 24.8 °F 80% 30.10 in 10.0 mi ESE 8.1 mph - N/A   Overcast
1:35 AM 30.2 °F 24.3 °F 24.8 °F 80% 30.09 in 10.0 mi ESE 5.8 mph - N/A   Overcast
1:55 AM 30.2 °F 24.3 °F 24.8 °F 80% 30.09 in 10.0 mi ESE 5.8 mph - N/A   Overcast
2:15 AM 30.2 °F 24.3 °F 24.8 °F 80% 30.09 in 10.0 mi East 5.8 mph - N/A   Overcast
2:55 AM 30.2 °F 23.4 °F 24.8 °F 80% 30.07 in 7.0 mi ESE 6.9 mph - N/A   Overcast
3:15 AM 30.2 °F 22.6 °F 24.8 °F 80% 30.05 in 7.0 mi East 8.1 mph - N/A   Overcast
3:35 AM 30.2 °F 22.6 °F 24.8 °F 80% 30.05 in 6.0 mi East 8.1 mph - N/A   Overcast
3:55 AM 30.2 °F 21.9 °F 24.8 °F 80% 30.03 in 5.0 mi East 9.2 mph - N/A   Overcast
4:15 AM 32.0 °F 24.2 °F 24.8 °F 75% 30.04 in 5.0 mi ESE 9.2 mph - N/A   Overcast
4:35 AM 32.0 °F 24.8 °F 26.6 °F 80% 30.03 in 5.0 mi ESE 8.1 mph - N/A   Overcast
5:15 AM 32.0 °F 24.8 °F 26.6 °F 80% 30.02 in 5.0 mi ESE 8.1 mph - N/A   Overcast
5:35 AM 32.0 °F 25.6 °F 26.6 °F 80% 30.02 in 4.0 mi ESE 6.9 mph - N/A   Overcast
5:55 AM 32.0 °F 24.8 °F 26.6 °F 80% 30.02 in 4.0 mi SE 8.1 mph - N/A   Overcast
6:15 AM 33.8 °F 27.7 °F 26.6 °F 75% 30.02 in 4.0 mi SE 6.9 mph - N/A   Overcast
6:35 AM 33.8 °F 26.4 °F 26.6 °F 75% 30.02 in 4.0 mi SSE 9.2 mph - N/A   Overcast
6:55 AM 33.8 °F 27.0 °F 28.4 °F 81% 30.01 in 3.0 mi SSE 8.1 mph - N/A   Overcast
7:15 AM 33.8 °F 26.4 °F 28.4 °F 81% 30.02 in 1.5 mi SSE 9.2 mph - N/A   Overcast
7:35 AM 33.8 °F 28.6 °F 28.4 °F 81% 30.03 in 1.2 mi SSE 5.8 mph - N/A   Overcast
7:55 AM 33.8 °F 27.7 °F 28.4 °F 81% 30.03 in 1.0 mi SE 6.9 mph - N/A   Overcast
8:15 AM 35.6 °F 29.2 °F 28.4 °F 75% 30.03 in 1.0 mi SE 8.1 mph - N/A   Overcast
8:55 AM 35.6 °F 27.5 °F 30.2 °F 81% 30.00 in 0.8 mi SE 11.5 mph - N/A   Overcast
9:15 AM 35.6 °F 28.6 °F 30.2 °F 81% 30.01 in 0.8 mi SE 9.2 mph 16.1 mph N/A   Overcast
9:35 AM 37.4 °F 31.4 °F 30.2 °F 75% 30.00 in 1.8 mi SSE 8.1 mph - N/A   Overcast
9:55 AM 37.4 °F 30.8 °F 32.0 °F 81% 29.99 in 3.0 mi SE 9.2 mph - N/A   Overcast
10:15 AM 37.4 °F 32.1 °F 32.0 °F 81% 29.99 in 3.0 mi SE 6.9 mph - N/A   Overcast
10:35 AM 37.4 °F 31.4 °F 33.8 °F 87% 29.98 in 2.5 mi SE 8.1 mph - N/A   Overcast
10:55 AM 39.2 °F 32.5 °F 33.8 °F 81% 29.96 in 3.0 mi SE 10.4 mph - N/A   Overcast
11:15 AM 39.2 °F 32.0 °F 33.8 °F 81% 29.94 in 7.0 mi SE 11.5 mph 17.3 mph N/A   Overcast
11:35 AM 41.0 °F 34.3 °F 35.6 °F 81% 29.92 in 8.0 mi SE 11.5 mph 16.1 mph N/A   Overcast
11:55 AM 41.0 °F 34.3 °F 35.6 °F 81% 29.91 in 7.0 mi SE 11.5 mph 19.6 mph N/A   Overcast
12:15 PM 42.8 °F 37.0 °F 35.6 °F 76% 29.89 in 8.0 mi SE 10.4 mph - N/A   Overcast
12:35 PM 42.8 °F 35.8 °F 37.4 °F 81% 29.88 in 8.0 mi SSE 13.8 mph 20.7 mph N/A   Overcast
12:55 PM 44.6 °F 38.4 °F 37.4 °F 76% 29.87 in 7.0 mi SSE 12.7 mph - N/A   Overcast
1:15 PM 44.6 °F 38.8 °F 39.2 °F 81% 29.86 in 7.0 mi SSE 11.5 mph - N/A   Overcast
1:35 PM 44.6 °F 38.8 °F 39.2 °F 81% 29.85 in 9.0 mi SSE 11.5 mph - N/A   Overcast
2:15 PM 46.4 °F 41.1 °F 42.8 °F 87% 29.83 in 10.0 mi SSE 11.5 mph - N/A   Overcast
2:35 PM 48.2 °F - 42.8 °F 82% 29.82 in 10.0 mi SSE 12.7 mph 18.4 mph N/A   Overcast
3:15 PM 50.0 °F - 44.6 °F 82% 29.81 in 9.0 mi SSE 12.7 mph - N/A   Overcast
3:35 PM 50.0 °F - 44.6 °F 82% 29.80 in 8.0 mi SSE 11.5 mph - N/A   Overcast
3:55 PM 51.8 °F - 44.6 °F 76% 29.80 in 6.0 mi SSE 10.4 mph - N/A   Overcast
4:15 PM 51.8 °F - 46.4 °F 82% 29.80 in 5.0 mi SSE 11.5 mph - N/A   Overcast
4:35 PM 53.6 °F - 46.4 °F 77% 29.79 in 7.0 mi SSE 13.8 mph - N/A   Overcast
4:55 PM 53.6 °F - 48.2 °F 82% 29.79 in 9.0 mi SSE 16.1 mph 20.7 mph N/A   Overcast
5:15 PM 53.6 °F - 48.2 °F 82% 29.78 in 9.0 mi SSE 16.1 mph - N/A   Overcast
5:35 PM 55.4 °F - 48.2 °F 77% 29.78 in 10.0 mi SSE 13.8 mph - N/A   Overcast
6:15 PM 57.2 °F - 51.8 °F 82% 29.78 in 8.0 mi SSE 17.3 mph - N/A   Overcast
6:35 PM 57.2 °F - 51.8 °F 82% 29.77 in 10.0 mi SSE 16.1 mph 21.9 mph N/A   Overcast
6:55 PM 57.2 °F - 51.8 °F 82% 29.76 in 10.0 mi SSE 16.1 mph 20.7 mph N/A   Overcast
7:15 PM 57.2 °F - 51.8 °F 82% 29.75 in 10.0 mi SSE 18.4 mph 21.9 mph N/A   Overcast
7:35 PM 57.2 °F - 53.6 °F 88% 29.74 in 10.0 mi SSE 18.4 mph - N/A   Overcast
7:55 PM 59.0 °F - 53.6 °F 82% 29.72 in 10.0 mi SSE 18.4 mph 25.3 mph N/A   Overcast
8:15 PM 59.0 °F - 53.6 °F 82% 29.69 in 10.0 mi SSE 18.4 mph 26.5 mph N/A   Overcast
8:35 PM 59.0 °F - 53.6 °F 82% 29.67 in 10.0 mi SSE 19.6 mph 29.9 mph N/A   Overcast
8:55 PM 59.0 °F - 53.6 °F 82% 29.66 in 10.0 mi SSE 21.9 mph 28.8 mph N/A   Overcast
9:15 PM 60.8 °F - 53.6 °F 77% 29.66 in 10.0 mi SSE 20.7 mph 26.5 mph N/A   Overcast
9:35 PM 60.8 °F - 53.6 °F 77% 29.64 in 10.0 mi SSE 18.4 mph 24.2 mph N/A   Overcast
9:55 PM 60.8 °F - 53.6 °F 77% 29.62 in 10.0 mi SSE 21.9 mph 32.2 mph N/A   Overcast
10:15 PM 60.8 °F - 55.4 °F 82% 29.60 in 10.0 mi South 19.6 mph 26.5 mph 0.02 in Thunderstorm Thunderstorm
10:35 PM 60.8 °F - 55.4 °F 82% 29.58 in 9.0 mi SSE 25.3 mph 34.5 mph 0.04 in Thunderstorm Thunderstorm
10:55 PM 62.6 °F - 55.4 °F 77% 29.57 in 10.0 mi South 27.6 mph 43.7 mph 0.05 in   Overcast
11:15 PM 62.6 °F - 55.4 °F 77% 29.70 in 8.0 mi West 33.4 mph 50.6 mph 0.03 in Thunderstorm Thunderstorm
11:35 PM 53.6 °F - 46.4 °F 77% 29.67 in 8.0 mi SW 15.0 mph - 0.37 in Thunderstorm Thunderstorm
11:55 PM 51.8 °F - 46.4 °F 82% 29.69 in 10.0 mi South 10.4 mph - 0.43 in Thunderstorm Thunderstorm